DCM224 KBHM-KPTN

Flight info

Callsign DCM224
Flight time N/A
Altitude 22000
Route DAYVS MOVIL KWANE WOBAK AWDAD
Aircraft PC12/L-SDFGRWY/S

Departure

Time 2026-05-06 16:19
Airport Birmingham-Shuttlesworth International Airport (KBHM)

Arrival

Time N/A
Airport Harry P Williams Memorial Airport (KPTN)
Time Latitude Longitude Altitude Speed Heading
2026-05-06 16:13 33.56370 -86.74537 621 ft 0 kts 179°
2026-05-06 16:15 33.56368 -86.74537 620 ft 2 kts 180°
2026-05-06 16:16 33.56304 -86.74538 618 ft 15 kts 180°
2026-05-06 16:16 33.56201 -86.74550 625 ft 9 kts 206°
2026-05-06 16:16 33.56198 -86.74592 621 ft 8 kts 350°
2026-05-06 16:16 33.56273 -86.74588 618 ft 13 kts 360°
2026-05-06 16:17 33.56372 -86.74588 619 ft 15 kts 359°
2026-05-06 16:17 33.56482 -86.74586 622 ft 17 kts
2026-05-06 16:17 33.56611 -86.74591 629 ft 20 kts
2026-05-06 16:17 33.56724 -86.74597 629 ft 12 kts 324°
2026-05-06 16:18 33.56714 -86.74669 630 ft 11 kts 232°
2026-05-06 16:18 33.56649 -86.74719 628 ft 12 kts 190°
2026-05-06 16:18 33.56382 -86.74723 616 ft 66 kts 181°
2026-05-06 16:18 33.55866 -86.74705 777 ft 77 kts 186°
2026-05-06 16:19 33.55308 -86.74688 993 ft 87 kts 187°
2026-05-06 16:19 33.54614 -86.74488 1252 ft 107 kts 174°
2026-05-06 16:19 33.53883 -86.74296 1597 ft 108 kts 177°
2026-05-06 16:19 33.53105 -86.74104 1891 ft 121 kts 174°
2026-05-06 16:20 33.52238 -86.74012 2203 ft 129 kts 201°
2026-05-06 16:20 33.51586 -86.74737 2599 ft 132 kts 238°
2026-05-06 16:20 33.51086 -86.75705 3014 ft 139 kts 238°
2026-05-06 16:20 33.50736 -86.76346 3348 ft 138 kts 238°